SCP
0 0 0 0 1 2 3 5 7 10 6 6 4 4 3 3 2 2 2 3 3 2 3 2 2 1 1 1 0 0 0 0 0 0 0 0 0 0 0 0 0 0 0
0 0 0 0 3 2 3 4 7 6 5 5 3 3 2 1 1 1 2 2 2 2 1 2 1 1 1 0 0 0 0 0 0 0 0 0 0 0 0 0 0 0 0
0 -0 0 1 2 1 1 2 2 3 4 4 4 4 2 2 1 2 2 2 2 2 1 1 1 1 0 0 0 0 0 0 0 0 0 0 0 0 0 0 0 0 0
0 0 0 2 1 1 1 1 1 2 2 3 2 2 1 1 1 1 2 2 2 1 1 1 0 0 0 0 0 0 0 0 0 0 0 0 0 0 0 0 0 0 0
0 0 0 1 0 1 0 1 1 1 2 2 2 1 1 1 1 2 2 2 2 1 1 0 0 0 0 0 0 0 0 0 0 0 0 0 0 0 0 0 0 0 0
0 0 1 0 0 0 0 1 1 1 1 1 1 1 1 2 2 1 1 1 1 1 0 0 0 0 0 0 0 0 0 -0 0 -0 0 0 0 0 0 0 0 0 0
0 0 0 0 0 0 0 0 0 1 1 1 1 1 1 1 1 1 1 0 0 0 0 0 0 0 0 0 0 0 0 0 0 0 -0 -0 0 0 0 0 0 0 0
0 -0 0 0 -0 0 0 0 0 0 0 0 0 1 1 0 1 0 0 0 0 0 0 0 -0 0 0 0 0 0 0 -0 -0 -0 0 -0 0 0 0 0 0 0 0
-0 0 0 0 0 0 0 0 0 0 0 0 0 0 0 1 0 0 0 0 0 0 0 0 -0 -0 0 0 0 0 0 -0 -0 -0 0 0 0 0 0 0 0 0 0
-0 0 0 0 0 0 0 0 0 0 0 0 0 0 0 0 0 0 0 0 0 -0 0 0 0 -0 0 0 0 0 0 -0 0 0 0 0 0 0 0 -0 0 0 0
0 -0 0 0 -0 0 0 0 0 0 0 0 0 0 0 0 0 0 0 0 0 -0 -0 -0 0 0 0 0 -0 0 -0 -0 0 0 0 0 0 -0 0 0 0 0 0
-0 -0 -0 -0 -0 0 -0 0 0 0 0 0 0 0 0 0 0 0 0 0 0 -0 -0 0 -0 0 0 -0 0 0 0 0 0 -0 -0 -0 0 0 0 0 0 0 0
-0 -0 -0 -0 -0 -0 0 -0 -0 0 0 0 0 0 0 0 0 0 0 0 -0 -0 -0 -0 -0 -0 -0 0 0 0 0 0 0 0 -0 0 -0 -0 -0 -0 0 -0 0
-0 -0 -0 -0 -0 -0 -0 -0 -0 -0 0 0 -0 -0 0 0 -0 0 -0 0 0 0 0 -0 -0 -0 0 0 0 0 0 0 0 0 0 0 -0 0 0 0 0 0 0
-0 -0 0 -0 -0 -0 -0 -0 -0 -0 0 -0 -0 0 0 0 -0 -0 -0 -0 0 0 0 -0 -0 -0 0 -0 0 0 0 0 0 0 0 0 0 0 0 0 0 0 0
0 -0 -0 -0 -0 -0 -0 -0 -0 -0 -0 -0 -0 -0 -0 -0 -0 -0 0 -0 0 0 0 0 -0 -0 0 0 -0 -0 0 0 0 0 0 0 -0 0 0 0 0 0 0
0 -0 -0 -0 -0 -0 -0 -0 -0 -0 -0 -0 -0 -0 -0 -0 -0 0 0 -0 -0 0 0 0 -0 0 0 -0 -0 -0 0 0 0 0 0 0 -0 0 0 0 0 0 0
0 0 -0 -0 -0 -0 -0 -0 -0 -0 -0 -0 -0 -0 -0 -0 -0 -0 -0 -0 -0 -0 0 0 0 0 0 0 -0 -0 -0 0 0 0 0 0 0 0 0 0 0 0 0
0 0 -0 -0 -0 -0 -0 -0 -0 -0 -0 -0 -0 -0 -0 -0 -0 -0 -0 -0 -0 -0 0 0 0 0 0 0 0 0 -0 0 0 0 0 0 0 -0 -0 0 0 0 0
0 0 -0 -0 -0 -0 -0 -0 -0 -0 -0 -0 -0 -0 -0 -0 -0 -0 0 0 0 -0 0 0 0 0 0 0 0 0 0 0 0 0 0 -0 0 -0 0 0 0 0 0
0 0 -0 -0 -0 -0 -0 -0 -0 -0 -0 -0 -0 -0 -0 -0 0 -0 -0 -0 0 0 -0 0 0 0 0 0 0 0 0 0 0 0 0 0 -0 0 0 0 0 0 -0
0 0 -0 -0 -0 -0 -0 -0 -0 0 0 -0 -0 -0 -0 -0 0 0 0 -0 -0 -0 0 -0 -0 0 0 0 0 0 0 -0 0 -0 -0 -0 -0 -0 -0 0 0 0 -0
0 0 -0 -0 -0 -0 -0 -0 -0 0 0 -0 -0 -0 -0 -0 -0 0 0 0 0 0 0 0 0 0 0 0 0 0 0 -0 0 -0 -0 -0 -0 -0 0 -0 -0 0 -0
0 0 0 -0 -0 -0 -0 -0 -0 0 -0 -0 -0 -0 -0 -0 -0 0 -0 0 0 0 0 0 0 0 0 -0 0 0 0 0 0 0 -0 0 0 0 -0 -0 -0 -0 -0
0 0 0 -0 -0 -0 -0 -0 -0 -0 -0 -0 -0 -0 -0 -0 -0 0 -0 0 0 0 0 0 0 0 0 0 0 0 0 0 0 0 0 0 0 0 -0 -0 -0 -0 -0
1 0 0 -0 -0 -0 -0 -0 -0 -0 -0 -0 -0 -0 -0 0 0 0 0 0 0 -0 0 0 0 0 0 0 0 0 0 0 -0 0 0 0 -0 -0 -0 -0 -0 0 0
Wind_Speed_500mb
56 49 49 53 70 43 46 44 43 49 59 59 44 50 50 47 44 37 34 34 33 30 36 41 43 47 44 38 35 34 34 35 27 28 31 33 30 38 35 37 34 37 30
61 59 48 46 49 42 43 49 48 56 60 53 41 47 45 36 35 35 33 34 35 28 29 36 42 40 38 37 35 34 33 35 35 39 28 15 31 44 45 41 38 33 33
64 73 63 50 42 37 34 39 47 53 54 48 46 40 38 32 31 30 28 34 32 30 28 39 36 32 33 35 29 30 32 35 33 36 33 14 18 31 46 45 43 38 37
70 75 65 43 35 26 24 27 39 49 54 47 48 42 41 33 28 24 26 18 17 17 21 33 33 25 22 21 22 23 29 33 36 33 39 36 14 18 17 43 37 30 42
48 49 39 40 32 30 28 35 45 44 51 46 43 44 35 27 16 17 22 25 30 34 28 26 16 17 15 14 17 20 22 26 30 34 29 41 32 25 10 26 46 39 30
49 41 38 46 41 32 35 42 41 49 49 45 36 35 27 19 18 21 18 20 26 24 20 11 11 11 10 11 12 11 14 18 21 24 29 31 25 16 10 33 29 35 28
39 55 53 48 43 43 43 43 53 47 50 40 37 26 29 25 19 11 12 16 14 12 6 8 15 13 8 6 4 4 5 9 11 17 23 24 22 15 23 35 34 26 24
42 48 44 47 48 47 47 46 49 45 44 37 30 23 18 12 12 9 10 8 3 6 14 11 9 4 6 7 9 8 7 8 7 8 13 20 13 12 11 26 29 37 24
40 40 43 47 51 50 50 50 44 42 38 33 29 23 19 15 14 13 7 3 7 7 6 4 4 3 1 7 8 11 11 5 5 4 4 8 12 10 12 28 37 51 38
41 44 47 53 52 51 50 45 43 40 36 31 28 22 17 13 5 5 4 10 18 16 3 4 1 1 2 6 6 7 6 5 2 1 3 2 2 4 6 22 35 37 48
48 53 53 53 52 50 46 45 40 37 34 31 25 25 13 11 13 8 9 9 25 12 8 6 7 2 3 2 6 8 9 10 6 7 6 1 5 6 5 30 35 36 37
54 53 54 54 53 49 46 43 38 35 33 27 23 15 17 15 13 13 14 5 19 17 13 6 5 4 11 2 5 8 12 15 3 7 5 7 17 18 18 20 36 41 31
56 56 56 53 50 48 43 41 37 33 30 28 21 19 16 11 14 15 19 13 14 13 10 5 5 9 7 4 2 4 8 8 10 8 4 12 18 17 19 22 32 31 38
55 56 53 50 46 44 42 38 35 32 28 29 25 19 14 8 19 14 25 20 14 13 13 7 6 4 6 11 17 14 4 2 5 6 7 23 16 16 22 26 30 51 72
53 52 49 49 47 44 41 37 35 32 28 28 25 12 9 14 18 16 24 24 20 16 16 7 12 6 9 10 14 10 12 11 17 18 20 26 21 18 30 33 52 81 92
51 48 48 47 47 45 41 38 36 33 30 27 22 5 17 21 15 16 22 24 24 16 12 13 15 11 4 14 16 15 18 23 20 24 31 38 38 24 34 44 72 90 91
47 47 46 46 46 44 43 40 37 33 31 30 14 24 26 18 21 19 21 20 22 20 18 15 16 12 12 14 17 17 17 24 30 36 36 38 35 37 41 67 67 79 79
45 45 45 47 47 42 42 39 37 35 33 33 24 28 26 23 22 19 17 17 22 24 22 18 14 15 11 13 15 17 20 26 35 33 31 33 35 46 52 65 65 71 69
48 46 47 49 45 45 44 42 39 37 34 32 33 27 30 24 24 20 21 17 21 22 22 20 19 12 13 13 18 21 20 29 34 30 31 29 42 47 53 68 67 58 59
25 49 48 49 49 48 47 44 41 39 37 32 33 32 25 19 21 19 19 13 16 15 16 22 20 13 13 17 25 26 28 35 34 36 33 31 41 43 41 52 66 57 58
4 46 50 51 52 52 50 46 42 40 38 34 34 35 26 21 16 13 17 17 15 11 14 25 19 10 15 22 27 27 25 32 36 32 36 41 38 45 40 46 54 53 68
5 47 52 53 54 54 53 49 46 41 39 37 37 37 33 28 21 15 20 20 18 19 26 29 21 19 20 30 31 31 34 32 31 45 44 49 43 46 40 36 48 60 63
12 33 50 54 55 56 55 51 48 45 42 41 40 44 32 35 22 25 19 21 22 22 29 28 21 18 20 26 34 42 43 41 37 49 57 59 50 38 36 45 47 59 73
18 20 51 55 57 58 54 51 50 47 46 47 44 41 39 38 22 25 31 18 18 19 23 23 25 19 11 27 43 51 45 44 45 50 42 40 38 33 40 52 52 50 40
13 25 44 56 57 58 56 55 52 50 49 51 49 46 43 41 34 28 27 23 23 27 24 32 22 20 19 30 42 46 48 46 46 44 39 41 39 43 50 55 43 34 43
12 21 28 55 56 56 56 56 54 55 54 56 52 49 45 44 37 39 34 29 29 20 14 32 24 19 18 25 39 43 45 46 42 41 43 40 36 45 50 50 40 36 40
Wind_Direction_500mb
281 259 263 274 283 238 238 225 224 210 214 211 200 198 205 213 205 219 223 227 237 243 250 272 268 275 274 270 254 253 250 232 230 240 247 251 248 217 212 225 211 220 226
275 283 258 265 250 244 246 233 219 206 208 202 203 198 200 219 208 218 228 235 243 258 268 266 276 274 276 265 259 253 247 238 236 241 244 250 243 223 214 208 209 222 221
274 274 275 270 233 240 243 227 212 206 195 192 186 191 194 207 203 211 207 239 253 258 264 274 283 278 272 268 262 253 244 243 244 239 228 207 221 223 217 208 213 218 222
251 250 252 213 210 219 214 193 181 183 182 183 177 187 188 194 208 227 234 214 227 246 280 287 286 283 277 266 257 250 245 248 248 245 235 225 208 195 208 216 212 212 220
258 261 241 187 179 186 176 177 182 178 169 170 183 183 182 198 184 202 244 255 259 265 275 275 282 279 282 270 263 255 247 245 246 241 239 226 235 236 209 196 207 216 225
247 243 177 150 155 157 163 174 172 152 174 166 179 181 189 176 185 210 230 253 278 283 272 245 312 295 280 282 277 258 248 238 233 230 223 229 232 234 226 207 202 201 202
235 134 140 145 148 152 162 166 151 169 169 167 179 167 196 204 213 199 252 269 285 298 225 175 222 265 267 280 280 212 251 232 245 233 222 223 224 225 180 200 180 168 168
114 128 140 146 148 156 159 155 161 163 164 172 167 171 174 160 175 222 243 257 231 213 157 213 235 234 243 225 253 254 254 258 258 257 239 234 225 210 199 187 188 160 154
134 140 144 147 152 156 156 160 162 162 165 165 162 167 171 167 209 220 200 238 156 110 155 182 172 211 266 242 232 241 236 213 247 314 246 197 224 227 218 212 205 180 151
143 148 149 151 152 155 158 159 163 165 165 167 168 167 167 187 190 160 172 145 127 150 257 121 80 183 250 249 217 205 187 172 148 153 87 117 35 147 171 197 178 177 173
151 148 152 152 153 155 158 162 164 165 168 166 170 176 193 191 187 181 181 177 151 154 138 48 13 22 349 315 173 183 188 271 287 284 348 47 160 111 260 168 167 171 168
150 154 152 155 155 158 160 163 167 168 167 169 178 184 183 198 188 161 172 128 138 139 129 181 290 8 316 271 218 230 217 237 255 197 181 146 149 142 134 137 146 140 148
151 151 155 156 158 160 163 166 168 169 168 170 180 172 198 223 169 165 160 152 136 141 154 163 210 293 313 55 28 184 202 243 242 273 91 145 151 154 148 143 153 152 153
152 154 158 159 163 164 168 167 169 169 171 172 178 191 222 167 151 159 154 146 152 153 143 189 293 33 46 65 69 68 88 201 133 131 114 142 135 157 158 156 160 163 146
158 157 160 161 165 167 168 170 169 170 173 172 181 195 154 156 152 151 166 154 154 162 190 180 117 65 30 89 89 63 75 112 121 112 119 136 137 135 148 142 143 142 141
160 160 165 165 168 170 170 170 169 169 169 173 170 183 143 150 150 154 153 155 159 158 179 143 133 162 87 86 87 85 88 122 112 121 115 117 121 128 152 154 150 151 150
158 166 169 169 171 173 174 171 170 167 167 169 161 145 154 153 146 130 143 156 156 164 164 165 165 175 122 103 108 96 107 125 112 117 123 123 123 136 148 152 151 155 158
165 165 169 170 170 175 173 171 170 169 168 173 149 155 157 151 151 143 147 147 158 164 181 178 184 182 150 116 123 99 107 125 125 119 124 130 131 144 153 153 149 154 156
164 168 170 170 171 175 175 173 170 172 170 166 162 161 164 160 156 163 177 187 190 186 183 188 173 197 172 140 136 112 117 129 132 124 121 126 136 144 157 158 158 157 161
169 162 167 168 172 176 175 175 173 178 175 170 168 163 176 165 148 185 180 169 144 156 164 183 170 193 161 142 149 134 132 133 137 138 134 138 137 146 143 157 161 163 168
130 160 168 171 175 177 177 177 176 183 178 169 166 161 171 165 171 153 160 144 135 141 155 154 152 159 152 150 148 132 157 143 138 147 149 140 130 139 143 159 167 161 154
282 162 166 171 177 180 181 180 180 182 179 171 167 163 160 165 172 157 135 146 127 121 127 136 135 129 136 144 145 140 145 135 128 136 136 144 136 137 141 152 166 166 162
239 182 171 173 178 182 186 182 183 182 180 174 170 169 163 174 177 153 153 131 133 126 125 131 140 141 137 148 152 143 138 135 146 138 134 135 133 132 135 148 140 152 161
237 211 174 174 177 185 188 185 184 182 182 177 173 169 159 174 165 158 159 166 162 159 153 155 153 151 147 163 158 153 153 156 154 143 141 144 144 142 139 142 143 142 154
217 224 188 180 182 187 188 187 185 183 185 180 179 175 174 178 172 171 166 175 191 201 196 169 142 145 152 155 157 161 164 159 159 153 149 147 149 150 151 156 156 158 172
246 224 218 184 183 188 190 190 188 186 187 179 181 184 184 184 184 187 183 184 190 211 143 188 166 141 129 149 161 152 157 160 162 160 155 149 151 160 161 165 164 169 172
Wind_Speed_850mb
56 49 49 53 70 43 46 44 43 49 59 59 44 50 50 47 44 37 34 34 33 30 36 41 43 47 44 38 35 34 34 35 27 28 31 33 30 38 35 37 34 37 30
61 59 48 46 49 42 43 49 48 56 60 53 41 47 45 36 35 35 33 34 35 28 29 36 42 40 38 37 35 34 33 35 35 39 28 15 31 44 45 41 38 33 33
64 73 63 50 42 37 34 39 47 53 54 48 46 40 38 32 31 30 28 34 32 30 28 39 36 32 33 35 29 30 32 35 33 36 33 14 18 31 46 45 43 38 37
70 75 65 43 35 26 24 27 39 49 54 47 48 42 41 33 28 24 26 18 17 17 21 33 33 25 22 21 22 23 29 33 36 33 39 36 14 18 17 43 37 30 42
48 49 39 40 32 30 28 35 45 44 51 46 43 44 35 27 16 17 22 25 30 34 28 26 16 17 15 14 17 20 22 26 30 34 29 41 32 25 10 26 46 39 30
49 41 38 46 41 32 35 42 41 49 49 45 36 35 27 19 18 21 18 20 26 24 20 11 11 11 10 11 12 11 14 18 21 24 29 31 25 16 10 33 29 35 28
39 55 53 48 43 43 43 43 53 47 50 40 37 26 29 25 19 11 12 16 14 12 6 8 15 13 8 6 4 4 5 9 11 17 23 24 22 15 23 35 34 26 24
42 48 44 47 48 47 47 46 49 45 44 37 30 23 18 12 12 9 10 8 3 6 14 11 9 4 6 7 9 8 7 8 7 8 13 20 13 12 11 26 29 37 24
40 40 43 47 51 50 50 50 44 42 38 33 29 23 19 15 14 13 7 3 7 7 6 4 4 3 1 7 8 11 11 5 5 4 4 8 12 10 12 28 37 51 38
41 44 47 53 52 51 50 45 43 40 36 31 28 22 17 13 5 5 4 10 18 16 3 4 1 1 2 6 6 7 6 5 2 1 3 2 2 4 6 22 35 37 48
48 53 53 53 52 50 46 45 40 37 34 31 25 25 13 11 13 8 9 9 25 12 8 6 7 2 3 2 6 8 9 10 6 7 6 1 5 6 5 30 35 36 37
54 53 54 54 53 49 46 43 38 35 33 27 23 15 17 15 13 13 14 5 19 17 13 6 5 4 11 2 5 8 12 15 3 7 5 7 17 18 18 20 36 41 31
56 56 56 53 50 48 43 41 37 33 30 28 21 19 16 11 14 15 19 13 14 13 10 5 5 9 7 4 2 4 8 8 10 8 4 12 18 17 19 22 32 31 38
55 56 53 50 46 44 42 38 35 32 28 29 25 19 14 8 19 14 25 20 14 13 13 7 6 4 6 11 17 14 4 2 5 6 7 23 16 16 22 26 30 51 72
53 52 49 49 47 44 41 37 35 32 28 28 25 12 9 14 18 16 24 24 20 16 16 7 12 6 9 10 14 10 12 11 17 18 20 26 21 18 30 33 52 81 92
51 48 48 47 47 45 41 38 36 33 30 27 22 5 17 21 15 16 22 24 24 16 12 13 15 11 4 14 16 15 18 23 20 24 31 38 38 24 34 44 72 90 91
47 47 46 46 46 44 43 40 37 33 31 30 14 24 26 18 21 19 21 20 22 20 18 15 16 12 12 14 17 17 17 24 30 36 36 38 35 37 41 67 67 79 79
45 45 45 47 47 42 42 39 37 35 33 33 24 28 26 23 22 19 17 17 22 24 22 18 14 15 11 13 15 17 20 26 35 33 31 33 35 46 52 65 65 71 69
48 46 47 49 45 45 44 42 39 37 34 32 33 27 30 24 24 20 21 17 21 22 22 20 19 12 13 13 18 21 20 29 34 30 31 29 42 47 53 68 67 58 59
25 49 48 49 49 48 47 44 41 39 37 32 33 32 25 19 21 19 19 13 16 15 16 22 20 13 13 17 25 26 28 35 34 36 33 31 41 43 41 52 66 57 58
4 46 50 51 52 52 50 46 42 40 38 34 34 35 26 21 16 13 17 17 15 11 14 25 19 10 15 22 27 27 25 32 36 32 36 41 38 45 40 46 54 53 68
5 47 52 53 54 54 53 49 46 41 39 37 37 37 33 28 21 15 20 20 18 19 26 29 21 19 20 30 31 31 34 32 31 45 44 49 43 46 40 36 48 60 63
12 33 50 54 55 56 55 51 48 45 42 41 40 44 32 35 22 25 19 21 22 22 29 28 21 18 20 26 34 42 43 41 37 49 57 59 50 38 36 45 47 59 73
18 20 51 55 57 58 54 51 50 47 46 47 44 41 39 38 22 25 31 18 18 19 23 23 25 19 11 27 43 51 45 44 45 50 42 40 38 33 40 52 52 50 40
13 25 44 56 57 58 56 55 52 50 49 51 49 46 43 41 34 28 27 23 23 27 24 32 22 20 19 30 42 46 48 46 46 44 39 41 39 43 50 55 43 34 43
12 21 28 55 56 56 56 56 54 55 54 56 52 49 45 44 37 39 34 29 29 20 14 32 24 19 18 25 39 43 45 46 42 41 43 40 36 45 50 50 40 36 40
Wind_Direction_850mb
281 259 263 274 283 238 238 225 224 210 214 211 200 198 205 213 205 219 223 227 237 243 250 272 268 275 274 270 254 253 250 232 230 240 247 251 248 217 212 225 211 220 226
275 283 258 265 250 244 246 233 219 206 208 202 203 198 200 219 208 218 228 235 243 258 268 266 276 274 276 265 259 253 247 238 236 241 244 250 243 223 214 208 209 222 221
274 274 275 270 233 240 243 227 212 206 195 192 186 191 194 207 203 211 207 239 253 258 264 274 283 278 272 268 262 253 244 243 244 239 228 207 221 223 217 208 213 218 222
251 250 252 213 210 219 214 193 181 183 182 183 177 187 188 194 208 227 234 214 227 246 280 287 286 283 277 266 257 250 245 248 248 245 235 225 208 195 208 216 212 212 220
258 261 241 187 179 186 176 177 182 178 169 170 183 183 182 198 184 202 244 255 259 265 275 275 282 279 282 270 263 255 247 245 246 241 239 226 235 236 209 196 207 216 225
247 243 177 150 155 157 163 174 172 152 174 166 179 181 189 176 185 210 230 253 278 283 272 245 312 295 280 282 277 258 248 238 233 230 223 229 232 234 226 207 202 201 202
235 134 140 145 148 152 162 166 151 169 169 167 179 167 196 204 213 199 252 269 285 298 225 175 222 265 267 280 280 212 251 232 245 233 222 223 224 225 180 200 180 168 168
114 128 140 146 148 156 159 155 161 163 164 172 167 171 174 160 175 222 243 257 231 213 157 213 235 234 243 225 253 254 254 258 258 257 239 234 225 210 199 187 188 160 154
134 140 144 147 152 156 156 160 162 162 165 165 162 167 171 167 209 220 200 238 156 110 155 182 172 211 266 242 232 241 236 213 247 314 246 197 224 227 218 212 205 180 151
143 148 149 151 152 155 158 159 163 165 165 167 168 167 167 187 190 160 172 145 127 150 257 121 80 183 250 249 217 205 187 172 148 153 87 117 35 147 171 197 178 177 173
151 148 152 152 153 155 158 162 164 165 168 166 170 176 193 191 187 181 181 177 151 154 138 48 13 22 349 315 173 183 188 271 287 284 348 47 160 111 260 168 167 171 168
150 154 152 155 155 158 160 163 167 168 167 169 178 184 183 198 188 161 172 128 138 139 129 181 290 8 316 271 218 230 217 237 255 197 181 146 149 142 134 137 146 140 148
151 151 155 156 158 160 163 166 168 169 168 170 180 172 198 223 169 165 160 152 136 141 154 163 210 293 313 55 28 184 202 243 242 273 91 145 151 154 148 143 153 152 153
152 154 158 159 163 164 168 167 169 169 171 172 178 191 222 167 151 159 154 146 152 153 143 189 293 33 46 65 69 68 88 201 133 131 114 142 135 157 158 156 160 163 146
158 157 160 161 165 167 168 170 169 170 173 172 181 195 154 156 152 151 166 154 154 162 190 180 117 65 30 89 89 63 75 112 121 112 119 136 137 135 148 142 143 142 141
160 160 165 165 168 170 170 170 169 169 169 173 170 183 143 150 150 154 153 155 159 158 179 143 133 162 87 86 87 85 88 122 112 121 115 117 121 128 152 154 150 151 150
158 166 169 169 171 173 174 171 170 167 167 169 161 145 154 153 146 130 143 156 156 164 164 165 165 175 122 103 108 96 107 125 112 117 123 123 123 136 148 152 151 155 158
165 165 169 170 170 175 173 171 170 169 168 173 149 155 157 151 151 143 147 147 158 164 181 178 184 182 150 116 123 99 107 125 125 119 124 130 131 144 153 153 149 154 156
164 168 170 170 171 175 175 173 170 172 170 166 162 161 164 160 156 163 177 187 190 186 183 188 173 197 172 140 136 112 117 129 132 124 121 126 136 144 157 158 158 157 161
169 162 167 168 172 176 175 175 173 178 175 170 168 163 176 165 148 185 180 169 144 156 164 183 170 193 161 142 149 134 132 133 137 138 134 138 137 146 143 157 161 163 168
130 160 168 171 175 177 177 177 176 183 178 169 166 161 171 165 171 153 160 144 135 141 155 154 152 159 152 150 148 132 157 143 138 147 149 140 130 139 143 159 167 161 154
282 162 166 171 177 180 181 180 180 182 179 171 167 163 160 165 172 157 135 146 127 121 127 136 135 129 136 144 145 140 145 135 128 136 136 144 136 137 141 152 166 166 162
239 182 171 173 178 182 186 182 183 182 180 174 170 169 163 174 177 153 153 131 133 126 125 131 140 141 137 148 152 143 138 135 146 138 134 135 133 132 135 148 140 152 161
237 211 174 174 177 185 188 185 184 182 182 177 173 169 159 174 165 158 159 166 162 159 153 155 153 151 147 163 158 153 153 156 154 143 141 144 144 142 139 142 143 142 154
217 224 188 180 182 187 188 187 185 183 185 180 179 175 174 178 172 171 166 175 191 201 196 169 142 145 152 155 157 161 164 159 159 153 149 147 149 150 151 156 156 158 172
246 224 218 184 183 188 190 190 188 186 187 179 181 184 184 184 184 187 183 184 190 211 143 188 166 141 129 149 161 152 157 160 162 160 155 149 151 160 161 165 164 169 172